TimeEDT,TemperatureF,Dew PointF,Humidity,Sea Level PressureIn,VisibilityMPH,Wind Direction,Wind SpeedMPH,Gust SpeedMPH,PrecipitationIn,Events,Conditions,WindDirDegrees,DateUTC
12:56 AM,63.0,52.0,67,30.04,10.0,SSW,11.5,-,N/A,,Overcast,210,2013-03-18 04:56:00
1:56 AM,63.0,53.1,70,30.03,10.0,SSW,6.9,-,N/A,,Overcast,210,2013-03-18 05:56:00
2:56 AM,62.1,54.0,75,30.03,10.0,Calm,Calm,-,0.00,Rain,Light Rain,0,2013-03-18 06:56:00
3:56 AM,60.1,55.9,86,30.03,10.0,NE,4.6,-,0.00,Rain,Light Rain,50,2013-03-18 07:56:00
4:56 AM,60.1,55.9,86,30.03,10.0,Calm,Calm,-,0.01,Rain,Light Rain,0,2013-03-18 08:56:00
5:56 AM,59.0,55.9,90,30.05,10.0,NNW,5.8,-,0.01,Rain,Light Rain,340,2013-03-18 09:56:00
6:56 AM,59.0,55.0,87,30.06,10.0,Calm,Calm,-,0.00,,Mostly Cloudy,0,2013-03-18 10:56:00
7:56 AM,59.0,55.9,90,30.07,10.0,Calm,Calm,-,N/A,,Mostly Cloudy,0,2013-03-18 11:56:00
8:56 AM,61.0,55.9,83,30.08,10.0,Calm,Calm,-,N/A,,Mostly Cloudy,0,2013-03-18 12:56:00
9:56 AM,61.0,57.0,87,30.09,10.0,South,3.5,-,0.00,,Mostly Cloudy,170,2013-03-18 13:56:00
10:56 AM,64.0,57.0,78,30.09,10.0,ESE,5.8,-,N/A,,Mostly Cloudy,110,2013-03-18 14:56:00
11:56 AM,64.9,57.9,78,30.07,10.0,SE,9.2,-,N/A,,Mostly Cloudy,140,2013-03-18 15:56:00
12:56 PM,63.0,55.9,78,30.05,5.0,SE,9.2,-,0.00,Rain,Light Rain,130,2013-03-18 16:56:00
1:56 PM,68.0,55.9,65,30.02,10.0,ESE,9.2,-,0.00,,Mostly Cloudy,120,2013-03-18 17:56:00
2:56 PM,66.0,54.0,65,29.99,10.0,ESE,9.2,-,N/A,,Mostly Cloudy,120,2013-03-18 18:56:00
3:56 PM,64.9,54.0,68,29.96,10.0,SE,11.5,-,N/A,,Mostly Cloudy,140,2013-03-18 19:56:00
4:56 PM,64.9,55.0,70,29.96,10.0,SE,9.2,-,N/A,,Mostly Cloudy,140,2013-03-18 20:56:00
5:56 PM,64.9,55.9,73,29.95,10.0,SE,6.9,-,N/A,,Overcast,130,2013-03-18 21:56:00
6:17 PM,64.4,57.2,77,29.93,10.0,SSE,10.4,-,N/A,,Overcast,150,2013-03-18 22:17:00
6:47 PM,64.4,57.2,77,29.93,10.0,SE,11.5,-,N/A,,Mostly Cloudy,140,2013-03-18 22:47:00
6:56 PM,64.0,57.9,80,29.93,10.0,SE,9.2,-,N/A,,Mostly Cloudy,130,2013-03-18 22:56:00
7:56 PM,62.1,57.0,84,29.91,10.0,ESE,4.6,-,N/A,,Scattered Clouds,120,2013-03-18 23:56:00
8:56 PM,63.0,57.0,81,29.91,10.0,Calm,Calm,-,N/A,,Overcast,0,2013-03-19 00:56:00
9:56 PM,62.1,59.0,90,29.87,10.0,SSE,10.4,-,N/A,,Mostly Cloudy,160,2013-03-19 01:56:00
10:56 PM,64.0,60.1,87,29.88,10.0,South,9.2,-,N/A,,Mostly Cloudy,180,2013-03-19 02:56:00
11:12 PM,64.4,60.8,88,29.88,10.0,South,12.7,-,N/A,Thunderstorm,Thunderstorm,190,2013-03-19 03:12:00
11:37 PM,62.6,57.2,82,29.93,2.0,WNW,28.8,46.0,0.00,Rain-Thunderstorm,Thunderstorms and Rain,290,2013-03-19 03:37:00
11:43 PM,60.8,55.4,82,29.95,2.0,NW,12.7,43.7,N/A,Rain-Thunderstorm,Heavy Thunderstorms and Rain,310,2013-03-19 03:43:00
11:56 PM,59.0,55.0,87,29.96,3.0,NW,11.5,26.5,0.24,Rain-Thunderstorm,Heavy Thunderstorms and Rain,310,2013-03-19 03:56:00